Total_Precipitation_Accumulation
1.83 1.38 0.86 0.47 0.37 0.34 0.28 0.35 0.49 0.55 0.54 0.56 0.59 0.46 0.43 0.37 0.33 0.34 0.34 0.37 0.45 0.57 0.71 0.83 0.97 1.12 1.24 1.22 1.26 1.37 1.43 1.52 1.62 1.62 1.49 1.37 1.26 1.20 1.13 0.99 0.93 0.83 0.77 0.78
1.56 1.01 0.45 0.31 0.33 0.31 0.29 0.32 0.42 0.47 0.48 0.55 0.55 0.47 0.42 0.42 0.38 0.34 0.33 0.34 0.44 0.56 0.65 0.77 0.90 1.02 1.17 1.25 1.29 1.42 1.49 1.51 1.54 1.58 1.63 1.58 1.59 1.50 1.40 1.29 1.20 1.08 1.02 1.00
1.20 0.67 0.38 0.40 0.43 0.36 0.28 0.29 0.35 0.40 0.45 0.54 0.56 0.55 0.42 0.40 0.39 0.33 0.30 0.34 0.41 0.58 0.65 0.73 0.85 0.89 0.98 1.16 1.36 1.44 1.49 1.53 1.55 1.75 2.10 2.05 1.93 1.79 1.65 1.52 1.41 1.30 1.25 1.23
1.08 0.60 0.46 0.46 0.40 0.34 0.31 0.22 0.28 0.36 0.50 0.57 0.58 0.74 0.48 0.45 0.45 0.36 0.33 0.34 0.43 0.53 0.57 0.64 0.81 0.85 0.88 1.00 1.25 1.53 1.60 1.67 1.78 1.96 2.17 2.20 1.94 1.72 1.59 1.57 1.57 1.53 1.41 1.37
1.02 0.69 0.56 0.52 0.39 0.34 0.32 0.23 0.29 0.36 0.46 0.54 0.46 0.59 0.54 0.46 0.48 0.47 0.43 0.44 0.50 0.55 0.58 0.63 0.80 0.89 0.88 0.94 1.11 1.37 1.59 1.66 1.83 1.97 2.07 2.20 1.99 1.72 1.68 1.66 1.58 1.56 1.47 1.37
0.71 0.60 0.64 0.54 0.37 0.36 0.36 0.34 0.39 0.46 0.54 0.56 0.40 0.49 0.56 0.52 0.52 0.54 0.54 0.60 0.64 0.62 0.64 0.68 0.78 0.81 0.81 0.85 0.96 1.12 1.30 1.39 1.51 1.67 1.85 2.00 2.01 1.89 1.76 1.64 1.56 1.51 1.48 1.42
0.86 0.70 0.57 0.50 0.48 0.42 0.42 0.54 0.71 0.80 0.69 0.48 0.33 0.39 0.55 0.49 0.49 0.54 0.60 0.65 0.67 0.64 0.61 0.65 0.69 0.69 0.68 0.72 0.82 0.93 1.03 1.12 1.23 1.38 1.56 1.74 1.85 1.87 1.81 1.73 1.60 1.49 1.40 1.33
0.84 0.95 0.56 0.45 0.45 0.43 0.36 0.43 0.56 0.57 0.38 0.30 0.23 0.34 0.50 0.50 0.53 0.53 0.59 0.58 0.57 0.56 0.59 0.66 0.73 0.71 0.69 0.70 0.72 0.74 0.83 0.97 1.05 1.14 1.30 1.43 1.50 1.54 1.51 1.52 1.49 1.43 1.35 1.30
0.46 0.59 0.38 0.29 0.25 0.27 0.34 0.30 0.25 0.43 0.30 0.23 0.23 0.31 0.44 0.49 0.50 0.51 0.54 0.49 0.46 0.45 0.54 0.64 0.67 0.65 0.63 0.63 0.62 0.63 0.70 0.79 0.83 0.88 0.99 1.03 1.09 1.13 1.17 1.21 1.21 1.21 1.23 1.27
0.24 0.37 0.32 0.24 0.23 0.20 0.19 0.17 0.24 0.47 0.41 0.27 0.20 0.23 0.44 0.47 0.47 0.46 0.44 0.41 0.38 0.42 0.49 0.51 0.50 0.48 0.50 0.54 0.58 0.58 0.59 0.64 0.64 0.65 0.70 0.72 0.75 0.81 0.88 0.95 0.93 0.91 0.96 1.02
0.14 0.24 0.28 0.23 0.26 0.19 0.14 0.16 0.22 0.31 0.28 0.23 0.17 0.25 0.31 0.37 0.39 0.38 0.35 0.36 0.35 0.39 0.39 0.37 0.35 0.35 0.38 0.41 0.42 0.42 0.45 0.52 0.51 0.47 0.47 0.50 0.52 0.57 0.65 0.76 0.82 0.84 0.84 0.82
0.10 0.17 0.22 0.17 0.09 0.06 0.08 0.11 0.19 0.32 0.22 0.18 0.15 0.23 0.23 0.26 0.28 0.27 0.27 0.29 0.29 0.31 0.31 0.31 0.29 0.29 0.30 0.31 0.32 0.35 0.39 0.40 0.39 0.36 0.36 0.36 0.37 0.39 0.44 0.54 0.61 0.66 0.71 0.74
0.09 0.13 0.22 0.23 0.15 0.10 0.10 0.11 0.13 0.27 0.42 0.27 0.20 0.23 0.24 0.23 0.22 0.21 0.23 0.25 0.25 0.23 0.21 0.20 0.19 0.19 0.20 0.23 0.27 0.29 0.28 0.26 0.26 0.26 0.27 0.28 0.29 0.28 0.30 0.34 0.39 0.43 0.49 0.58
0.15 0.09 0.12 0.15 0.12 0.17 0.19 0.11 0.14 0.45 0.56 0.19 0.09 0.16 0.17 0.17 0.17 0.20 0.23 0.21 0.18 0.17 0.14 0.11 0.09 0.09 0.10 0.15 0.19 0.20 0.18 0.17 0.20 0.21 0.21 0.22 0.22 0.23 0.23 0.24 0.26 0.27 0.29 0.33
0.12 0.10 0.06 0.06 0.09 0.21 0.21 0.14 0.16 0.30 0.20 0.16 0.07 0.08 0.10 0.10 0.13 0.17 0.18 0.14 0.10 0.08 0.06 0.05 0.05 0.05 0.07 0.11 0.14 0.15 0.17 0.19 0.21 0.20 0.17 0.16 0.17 0.18 0.19 0.18 0.17 0.15 0.14 0.15
0.11 0.11 0.07 0.07 0.07 0.12 0.15 0.09 0.08 0.09 0.06 0.06 0.05 0.06 0.05 0.09 0.13 0.16 0.15 0.11 0.08 0.06 0.05 0.03 0.03 0.03 0.04 0.08 0.15 0.20 0.24 0.24 0.21 0.19 0.16 0.16 0.17 0.18 0.18 0.16 0.12 0.11 0.10 0.11
0.06 0.08 0.14 0.08 0.03 0.10 0.12 0.07 0.06 0.04 0.03 0.04 0.06 0.05 0.06 0.13 0.20 0.21 0.15 0.08 0.05 0.04 0.03 0.02 0.01 0.01 0.04 0.11 0.24 0.37 0.43 0.39 0.31 0.27 0.22 0.20 0.20 0.20 0.20 0.19 0.19 0.18 0.17 0.18
0.04 0.08 0.18 0.11 0.07 0.17 0.12 0.06 0.03 0.02 0.02 0.04 0.04 0.04 0.07 0.10 0.15 0.15 0.09 0.04 0.02 0.02 0.01 0.01 0.01 0.03 0.06 0.14 0.27 0.37 0.45 0.48 0.43 0.39 0.37 0.33 0.34 0.36 0.38 0.40 0.39 0.37 0.37 0.36
0.03 0.10 0.20 0.15 0.11 0.07 0.03 0.02 0.03 0.03 0.03 0.03 0.04 0.02 0.03 0.04 0.09 0.09 0.06 0.03 0.02 0.01 0.01 0.01 0.01 0.03 0.07 0.14 0.22 0.32 0.41 0.47 0.51 0.57 0.61 0.60 0.59 0.62 0.66 0.71 0.72 0.68 0.65 0.63
0.03 0.09 0.21 0.17 0.12 0.03 0.02 0.01 0.01 0.02 0.04 0.01 0.02 0.02 0.01 0.02 0.07 0.08 0.07 0.05 0.04 0.03 0.03 0.03 0.03 0.05 0.10 0.17 0.28 0.45 0.56 0.62 0.64 0.71 0.76 0.73 0.72 0.73 0.73 0.74 0.74 0.70 0.64 0.61
0.07 0.12 0.18 0.16 0.12 0.02 0.01 0.01 0.01 0.03 0.04 0.01 0.02 0.02 0.03 0.04 0.05 0.04 0.06 0.08 0.09 0.09 0.10 0.12 0.14 0.18 0.25 0.34 0.48 0.70 0.82 0.77 0.71 0.70 0.66 0.60 0.56 0.51 0.48 0.46 0.43 0.41 0.37 0.34
0.02 0.05 0.06 0.06 0.07 0.03 0.01 0.01 0.01 0.02 0.01 0.01 0.02 0.03 0.04 0.03 0.03 0.03 0.04 0.06 0.11 0.14 0.15 0.18 0.24 0.30 0.36 0.40 0.46 0.56 0.59 0.54 0.48 0.43 0.36 0.30 0.28 0.25 0.23 0.21 0.20 0.18 0.16 0.14
0.02 0.03 0.03 0.03 0.04 0.02 0.01 0.01 0.01 0.01 0.01 0.01 0.03 0.04 0.04 0.03 0.02 0.03 0.03 0.04 0.05 0.08 0.08 0.09 0.11 0.12 0.15 0.17 0.19 0.20 0.19 0.16 0.14 0.12 0.10 0.08 0.08 0.08 0.07 0.07 0.06 0.05 0.04 0.03
0.03 0.02 0.03 0.02 0.02 0.02 0.01 0.01 0.01 0.01 0.01 0.01 0.03 0.03 0.03 0.04 0.03 0.03 0.03 0.03 0.04 0.04 0.04 0.04 0.04 0.04 0.04 0.04 0.05 0.04 0.04 0.04 0.03 0.03 0.03 0.03 0.03 0.03 0.04 0.04 0.04 0.04 0.04 0.04
0.04 0.03 0.04 0.03 0.02 0.02 0.01 0.01 0.01 0.01 0.01 0.01 0.01 0.01 0.02 0.02 0.03 0.04 0.04 0.04 0.04 0.04 0.04 0.04 0.04 0.04 0.04 0.04 0.04 0.04 0.04 0.04 0.04 0.04 0.05 0.05 0.05 0.05 0.05 0.06 0.07 0.08 0.07 0.08
0.02 0.03 0.04 0.04 0.01 0.01 0.00 0.00 0.00 0.01 0.01 0.01 0.01 0.01 0.02 0.02 0.02 0.03 0.03 0.03 0.03 0.04 0.04 0.05 0.05 0.05 0.05 0.05 0.06 0.06 0.06 0.07 0.07 0.07 0.07 0.09 0.10 0.10 0.10 0.11 0.11 0.13 0.13 0.14